Zurück zum Katalog

FENGYUN 1C DEB

AktivPO
NORAD 31389·DEBRIS·🇨🇳 China

Gestartet May 10, 1999 von Taiyuan Satellite Launch Center

Loading…

Nächste Überflüge (nächste 24 Stunden)

TLE

AktuellSource: Space-Track

Epoche: Sep 14, 2026, 01:23 UTC

1 31389U 99025BSV 26257.05818439  .00015136  00000-0  23723-2 0  9994
2 31389  99.0383  95.8566 0026152  55.3409  95.8712 14.72565146  5276

Verfolge FENGYUN 1C DEB in Echtzeit mit AllMySat

Download on the App Store